Time,TemperatureF,DewpointF,PressureIn,WindDirection,WindDirectionDegrees,WindSpeedMPH,WindSpeedGustMPH,Humidity,HourlyPrecipIn,Conditions,Clouds,dailyrainin,SoftwareType,DateUTC
2013-05-02 00:03:00,58.0,53.0,-100.00,North,4,1.0,2.0,83,0.00,,,0.00,,2013-05-02 04:03:00,
2013-05-02 00:12:00,58.0,53.0,-100.00,North,4,1.0,2.0,83,0.00,,,0.00,,2013-05-02 04:12:00,
2013-05-02 00:43:00,56.0,52.0,-100.00,NNW,337,1.0,2.0,86,0.00,,,0.00,,2013-05-02 04:43:00,
2013-05-02 00:52:00,56.0,52.0,-100.00,NNW,337,1.0,2.0,86,0.00,,,0.00,,2013-05-02 04:52:00,
2013-05-02 01:02:00,56.0,52.0,-100.00,NNW,337,1.0,2.0,86,0.00,,,0.00,,2013-05-02 05:02:00,
2013-05-02 01:12:00,56.0,52.0,-100.00,NNW,337,1.0,2.0,86,0.00,,,0.00,,2013-05-02 05:12:00,
2013-05-02 01:42:00,54.0,52.0,-100.00,East,89,0.0,0.0,92,0.00,,,0.00,,2013-05-02 05:42:00,
2013-05-02 01:52:00,54.0,52.0,-100.00,East,89,0.0,0.0,92,0.00,,,0.00,,2013-05-02 05:52:00,
2013-05-02 02:01:00,54.0,52.0,-100.00,East,89,0.0,0.0,92,0.00,,,0.00,,2013-05-02 06:01:00,
2013-05-02 02:12:00,54.0,52.0,-100.00,East,89,0.0,0.0,92,0.00,,,0.00,,2013-05-02 06:12:00,
2013-05-02 02:42:00,52.0,51.0,-100.00,ENE,67,0.0,0.0,95,0.00,,,0.00,,2013-05-02 06:42:00,
2013-05-02 02:52:00,52.0,51.0,-100.00,ENE,67,0.0,0.0,95,0.00,,,0.00,,2013-05-02 06:52:00,
2013-05-02 03:02:00,52.0,51.0,-100.00,ENE,67,0.0,0.0,95,0.00,,,0.00,,2013-05-02 07:02:00,
2013-05-02 03:11:00,52.0,51.0,-100.00,ENE,67,0.0,0.0,95,0.00,,,0.00,,2013-05-02 07:11:00,
2013-05-02 03:42:00,50.0,49.0,-100.00,North,8,0.0,0.0,97,0.00,,,0.00,,2013-05-02 07:42:00,
2013-05-02 03:52:00,50.0,49.0,-100.00,North,8,0.0,0.0,97,0.00,,,0.00,,2013-05-02 07:52:00,
2013-05-02 04:02:00,50.0,49.0,-100.00,North,8,0.0,0.0,97,0.00,,,0.00,,2013-05-02 08:02:00,
2013-05-02 04:11:00,50.0,49.0,-100.00,North,8,0.0,0.0,97,0.00,,,0.00,,2013-05-02 08:11:00,
2013-05-02 04:42:00,49.0,48.0,-100.00,NNW,328,0.0,0.0,98,0.00,,,0.00,,2013-05-02 08:42:00,
2013-05-02 04:52:00,49.0,48.0,-100.00,NNW,328,0.0,0.0,98,0.00,,,0.00,,2013-05-02 08:52:00,
2013-05-02 05:02:00,49.0,48.0,-100.00,NNW,328,0.0,0.0,98,0.00,,,0.00,,2013-05-02 09:02:00,
2013-05-02 05:12:00,49.0,48.0,-100.00,NNW,328,0.0,0.0,98,0.00,,,0.00,,2013-05-02 09:12:00,
2013-05-02 05:43:00,48.0,47.0,-100.00,SSW,212,0.0,0.0,98,0.00,,,0.00,,2013-05-02 09:43:00,
2013-05-02 05:52:00,48.0,47.0,-100.00,SSW,212,0.0,0.0,98,0.00,,,0.00,,2013-05-02 09:52:00,
2013-05-02 06:03:00,48.0,47.0,-100.00,SSW,212,0.0,0.0,98,0.00,,,0.00,,2013-05-02 10:03:00,
2013-05-02 06:12:00,48.0,47.0,-100.00,SSW,212,0.0,0.0,98,0.00,,,0.00,,2013-05-02 10:12:00,
2013-05-02 06:42:00,48.0,47.0,-100.00,South,174,0.0,0.0,98,0.00,,,0.00,,2013-05-02 10:42:00,
2013-05-02 06:53:00,48.0,47.0,-100.00,South,174,0.0,0.0,98,0.00,,,0.00,,2013-05-02 10:53:00,
2013-05-02 07:02:00,48.0,47.0,-100.00,South,174,0.0,0.0,98,0.00,,,0.00,,2013-05-02 11:02:00,
2013-05-02 07:12:00,48.0,47.0,-100.00,South,174,0.0,0.0,98,0.00,,,0.00,,2013-05-02 11:12:00,
2013-05-02 07:42:00,48.0,47.0,-100.00,WSW,240,0.0,0.0,98,0.00,,,0.00,,2013-05-02 11:42:00,
2013-05-02 07:52:00,48.0,47.0,-100.00,WSW,240,0.0,0.0,98,0.00,,,0.00,,2013-05-02 11:52:00,
2013-05-02 08:01:00,48.0,47.0,-100.00,WSW,240,0.0,0.0,98,0.00,,,0.00,,2013-05-02 12:01:00,
2013-05-02 08:12:00,48.0,47.0,-100.00,WSW,240,0.0,0.0,98,0.00,,,0.00,,2013-05-02 12:12:00,
2013-05-02 08:42:00,54.0,53.0,-100.00,SSE,163,0.0,0.0,98,0.00,,,0.00,,2013-05-02 12:42:00,
2013-05-02 08:52:00,54.0,53.0,-100.00,SSE,163,0.0,0.0,98,0.00,,,0.00,,2013-05-02 12:52:00,
2013-05-02 09:01:00,54.0,53.0,-100.00,SSE,163,0.0,0.0,98,0.00,,,0.00,,2013-05-02 13:01:00,
2013-05-02 09:11:00,54.0,53.0,-100.00,SSE,163,0.0,0.0,98,0.00,,,0.00,,2013-05-02 13:11:00,
2013-05-02 09:42:00,62.0,59.0,-100.00,SSE,165,3.0,7.0,90,0.00,,,0.00,,2013-05-02 13:42:00,
2013-05-02 09:52:00,62.0,59.0,-100.00,SSE,165,3.0,7.0,90,0.00,,,0.00,,2013-05-02 13:52:00,
2013-05-02 10:02:00,62.0,59.0,-100.00,SSE,165,3.0,7.0,90,0.00,,,0.00,,2013-05-02 14:02:00,
2013-05-02 10:11:00,62.0,59.0,-100.00,SSE,165,3.0,7.0,90,0.00,,,0.00,,2013-05-02 14:11:00,
2013-05-02 10:43:00,66.0,52.0,-100.00,SSW,195,4.0,10.0,61,0.00,,,0.00,,2013-05-02 14:43:00,
2013-05-02 10:52:00,66.0,52.0,-100.00,SSW,195,4.0,10.0,61,0.00,,,0.00,,2013-05-02 14:52:00,
2013-05-02 11:02:00,66.0,52.0,-100.00,SSW,195,4.0,10.0,61,0.00,,,0.00,,2013-05-02 15:02:00,
2013-05-02 11:12:00,66.0,52.0,-100.00,SSW,195,4.0,10.0,61,0.00,,,0.00,,2013-05-02 15:12:00,
2013-05-02 11:43:00,70.0,53.0,-100.00,ESE,117,3.0,10.0,55,0.00,,,0.00,,2013-05-02 15:43:00,
2013-05-02 12:03:00,70.0,53.0,-100.00,ESE,117,3.0,10.0,55,0.00,,,0.00,,2013-05-02 16:03:00,
2013-05-02 12:13:00,70.0,53.0,-100.00,ESE,117,3.0,10.0,55,0.00,,,0.00,,2013-05-02 16:13:00,
2013-05-02 12:32:00,70.0,53.0,-100.00,ESE,115,6.0,10.0,55,0.00,,,0.00,,2013-05-02 16:32:00,
2013-05-02 12:43:00,70.0,53.0,-100.00,ESE,115,6.0,10.0,55,0.00,,,0.00,,2013-05-02 16:43:00,
2013-05-02 12:52:00,70.0,53.0,-100.00,ESE,115,6.0,10.0,55,0.00,,,0.00,,2013-05-02 16:52:00,
2013-05-02 13:02:00,70.0,53.0,-100.00,ESE,115,6.0,10.0,55,0.00,,,0.00,,2013-05-02 17:02:00,
2013-05-02 13:12:00,70.0,53.0,-100.00,ESE,115,6.0,10.0,55,0.00,,,0.00,,2013-05-02 17:12:00,
2013-05-02 13:42:00,73.0,54.0,-100.00,SSE,155,3.0,8.0,52,0.00,,,0.00,,2013-05-02 17:42:00,
2013-05-02 13:52:00,73.0,54.0,-100.00,SSE,155,3.0,8.0,52,0.00,,,0.00,,2013-05-02 17:52:00,
2013-05-02 14:01:00,73.0,54.0,-100.00,SSE,155,3.0,8.0,52,0.00,,,0.00,,2013-05-02 18:01:00,
2013-05-02 14:12:00,73.0,54.0,-100.00,SSE,155,3.0,8.0,52,0.00,,,0.00,,2013-05-02 18:12:00,
2013-05-02 14:42:00,74.0,52.0,-100.00,South,188,4.0,10.0,47,0.00,,,0.00,,2013-05-02 18:42:00,
2013-05-02 14:52:00,74.0,52.0,-100.00,South,188,4.0,10.0,47,0.00,,,0.00,,2013-05-02 18:52:00,
2013-05-02 15:01:00,74.0,52.0,-100.00,South,188,4.0,10.0,47,0.00,,,0.00,,2013-05-02 19:01:00,
2013-05-02 15:11:00,74.0,52.0,-100.00,South,188,4.0,10.0,47,0.00,,,0.00,,2013-05-02 19:11:00,
2013-05-02 15:42:00,75.0,53.0,-100.00,West,269,3.0,9.0,47,0.00,,,0.00,,2013-05-02 19:42:00,
2013-05-02 15:52:00,75.0,53.0,-100.00,West,269,3.0,9.0,47,0.00,,,0.00,,2013-05-02 19:52:00,
2013-05-02 16:02:00,75.0,53.0,-100.00,West,269,3.0,9.0,47,0.00,,,0.00,,2013-05-02 20:02:00,
2013-05-02 16:11:00,75.0,53.0,-100.00,West,269,3.0,9.0,47,0.00,,,0.00,,2013-05-02 20:11:00,
2013-05-02 16:42:00,76.0,54.0,-100.00,ESE,113,4.0,10.0,47,0.00,,,0.00,,2013-05-02 20:42:00,
2013-05-02 16:52:00,76.0,54.0,-100.00,ESE,113,4.0,10.0,47,0.00,,,0.00,,2013-05-02 20:52:00,
2013-05-02 17:01:00,76.0,54.0,-100.00,ESE,113,4.0,10.0,47,0.00,,,0.00,,2013-05-02 21:01:00,
2013-05-02 17:12:00,76.0,54.0,-100.00,ESE,113,4.0,10.0,47,0.00,,,0.00,,2013-05-02 21:12:00,
2013-05-02 17:42:00,76.0,54.0,-100.00,SE,135,3.0,10.0,46,0.00,,,0.00,,2013-05-02 21:42:00,
2013-05-02 17:53:00,76.0,54.0,-100.00,SE,135,3.0,10.0,46,0.00,,,0.00,,2013-05-02 21:53:00,
2013-05-02 18:03:00,76.0,54.0,-100.00,SE,135,3.0,10.0,46,0.00,,,0.00,,2013-05-02 22:03:00,
2013-05-02 18:12:00,76.0,54.0,-100.00,SE,135,3.0,10.0,46,0.00,,,0.00,,2013-05-02 22:12:00,
2013-05-02 18:42:00,77.0,54.0,-100.00,NNW,332,3.0,8.0,45,0.00,,,0.00,,2013-05-02 22:42:00,
2013-05-02 18:53:00,77.0,54.0,-100.00,NNW,332,3.0,8.0,45,0.00,,,0.00,,2013-05-02 22:53:00,
2013-05-02 19:02:00,77.0,54.0,-100.00,NNW,332,3.0,8.0,45,0.00,,,0.00,,2013-05-02 23:02:00,
2013-05-02 19:12:00,77.0,54.0,-100.00,NNW,332,3.0,8.0,45,0.00,,,0.00,,2013-05-02 23:12:00,
2013-05-02 19:32:00,72.0,52.0,-100.00,NE,47,1.0,7.0,49,0.00,,,0.00,,2013-05-02 23:32:00,
2013-05-02 19:42:00,72.0,52.0,-100.00,NE,47,1.0,7.0,49,0.00,,,0.00,,2013-05-02 23:42:00,
2013-05-02 19:52:00,72.0,52.0,-100.00,NE,47,1.0,7.0,49,0.00,,,0.00,,2013-05-02 23:52:00,
2013-05-02 20:01:00,72.0,52.0,-100.00,NE,47,1.0,7.0,49,0.00,,,0.00,,2013-05-03 00:01:00,
2013-05-02 20:11:00,72.0,52.0,-100.00,NE,47,1.0,7.0,49,0.00,,,0.00,,2013-05-03 00:11:00,
2013-05-02 20:42:00,67.0,57.0,-100.00,East,90,0.0,0.0,71,0.00,,,0.00,,2013-05-03 00:42:00,
2013-05-02 20:52:00,67.0,57.0,-100.00,East,90,0.0,0.0,71,0.00,,,0.00,,2013-05-03 00:52:00,
2013-05-02 21:01:00,67.0,57.0,-100.00,East,90,0.0,0.0,71,0.00,,,0.00,,2013-05-03 01:01:00,
2013-05-02 21:11:00,67.0,57.0,-100.00,East,90,0.0,0.0,71,0.00,,,0.00,,2013-05-03 01:11:00,
2013-05-02 21:32:00,65.0,58.0,-100.00,SE,145,0.0,3.0,79,0.00,,,0.00,,2013-05-03 01:32:00,
2013-05-02 21:42:00,65.0,58.0,-100.00,SE,145,0.0,3.0,79,0.00,,,0.00,,2013-05-03 01:42:00,
2013-05-02 21:52:00,65.0,58.0,-100.00,SE,145,0.0,3.0,79,0.00,,,0.00,,2013-05-03 01:52:00,
2013-05-02 22:02:00,65.0,58.0,-100.00,SE,145,0.0,3.0,79,0.00,,,0.00,,2013-05-03 02:02:00,
2013-05-02 22:11:00,65.0,58.0,-100.00,SE,145,0.0,3.0,79,0.00,,,0.00,,2013-05-03 02:11:00,
2013-05-02 22:32:00,63.0,58.0,-100.00,ENE,65,0.0,0.0,83,0.00,,,0.00,,2013-05-03 02:32:00,
2013-05-02 22:42:00,63.0,58.0,-100.00,ENE,65,0.0,0.0,83,0.00,,,0.00,,2013-05-03 02:42:00,
2013-05-02 22:52:00,63.0,58.0,-100.00,ENE,65,0.0,0.0,83,0.00,,,0.00,,2013-05-03 02:52:00,
2013-05-02 23:01:00,63.0,58.0,-100.00,ENE,65,0.0,0.0,83,0.00,,,0.00,,2013-05-03 03:01:00,
2013-05-02 23:11:00,63.0,58.0,-100.00,ENE,65,0.0,0.0,83,0.00,,,0.00,,2013-05-03 03:11:00,
2013-05-02 23:33:00,59.0,56.0,-100.00,SSW,199,1.0,2.0,91,0.00,,,0.00,,2013-05-03 03:33:00,
2013-05-02 23:43:00,59.0,56.0,-100.00,SSW,199,1.0,2.0,91,0.00,,,0.00,,2013-05-03 03:43:00,
2013-05-02 23:53:00,59.0,56.0,-100.00,SSW,199,1.0,2.0,91,0.00,,,0.00,,2013-05-03 03:53:00,